Darstellungsparameter: Aktuell verwendete Einstellungen:
Skalierung der Graphiken ... ?
xyx+y,   Skalierungsfaktor:      Skalierung: Modus: x, Faktor: 1
Darstellungszeitraum ... ?
Vom - - bis: - -   Zeitraum: 24.12.2019 - 28.12.2019
Min/Max/Avg-Anzeige ... ?
Zeige MMA aktuell
Zeige MMA Monat
Zeige MMA alles
Zeige --A aktuell
Zeige --A Monat
Zeige --A alles
Keine MMA-Anzeige
MMA:
Average (ber die Originaldaten)
MMA-Basis: 24.12.2019 - 28.12.2019
Quicknavigation für Darstellung... ?
Tage:      1T, 2T, 3T, 5T -1T -2T -3T -5T +1T +2T +3T +5T
Wochen: 1W, 2W, 3W -1W -2W -3W +1W +2W +3W
Monate: 1M, 3M, 6M -1M -3M -6M +1M +3M +6M
Jahre:    1J, 3J, 5J, 10J -1J -3J -5J -10J +1J +3J +5J +10J
Nutze für die Darstellung ... ?
Originaldaten oder Mittelwerte auf ...
Stundenbasis Tagesbasis Wochenbasis
Monatsbasis Jahresbasis      Datenbasis: Original-Daten
Darstellen als:
Statistik (Auto) Statistik J:M      Darstellung:
Zur Graphik,    zurück zur Übersicht aller Sensoren.
 
Tabellarische Datenbersicht: ?
 
Sensor: Nr:Datum:Temp:Feuchte:
Aussen-T/F 1 24-12-2019 00:02:17 5.6 C 35 %
2 24-12-2019 00:12:17 5.8 C 32 %
3 24-12-2019 00:22:17 5.7 C 32 %
4 24-12-2019 00:32:18 6 C 32 %
5 24-12-2019 00:42:18 6.1 C 31 %
6 24-12-2019 00:52:17 6.3 C 31 %
7 24-12-2019 01:02:17 5.6 C 32 %
8 24-12-2019 01:12:17 5.9 C 32 %
9 24-12-2019 01:22:17 6.1 C 30 %
10 24-12-2019 01:32:17 6.3 C 30 %
11 24-12-2019 01:42:17 5.9 C 31 %
12 24-12-2019 01:52:17 5.7 C 33 %
13 24-12-2019 02:02:17 5.7 C 35 %
14 24-12-2019 02:12:17 5.8 C 35 %
15 24-12-2019 02:22:17 5.6 C 35 %
16 24-12-2019 02:32:18 5.5 C 36 %
17 24-12-2019 02:42:18 5.5 C 36 %
18 24-12-2019 02:52:17 6.6 C 30 %
19 24-12-2019 03:02:18 6.7 C 29 %
20 24-12-2019 03:12:18 6.3 C 30 %
21 24-12-2019 03:22:17 5.7 C 31 %
22 24-12-2019 03:32:17 5.5 C 31 %
23 24-12-2019 03:42:17 5.7 C 31 %
24 24-12-2019 03:52:17 5 C 32 %
25 24-12-2019 04:02:17 5 C 38 %
Sensor: Nr:Datum:Temp:Feuchte:
Aussen-T/F 26 24-12-2019 04:12:17 5.2 C 37 %
27 24-12-2019 04:22:17 5.2 C 36 %
28 24-12-2019 04:32:17 4.8 C 37 %
29 24-12-2019 04:42:17 4.8 C 39 %
30 24-12-2019 04:52:17 5.3 C 38 %
31 24-12-2019 05:02:18 5.4 C 35 %
32 24-12-2019 05:12:18 5.2 C 35 %
33 24-12-2019 05:22:17 4.7 C 37 %
34 24-12-2019 05:32:18 5 C 37 %
35 24-12-2019 05:42:18 4.6 C 36 %
36 24-12-2019 05:52:17 4.9 C 37 %
37 24-12-2019 06:02:18 4.3 C 36 %
38 24-12-2019 06:12:18 4.6 C 39 %
39 24-12-2019 06:22:17 4.6 C 38 %
40 24-12-2019 06:32:17 4.6 C 39 %
41 24-12-2019 06:42:17 4.5 C 38 %
42 24-12-2019 06:52:17 4.5 C 39 %
43 24-12-2019 07:02:17 4.8 C 37 %
44 24-12-2019 07:12:17 5 C 36 %
45 24-12-2019 07:22:17 5.4 C 34 %
46 24-12-2019 07:32:17 5.6 C 33 %
47 24-12-2019 07:42:17 5.6 C 32 %
48 24-12-2019 07:52:17 5.8 C 32 %
49 24-12-2019 08:02:17 5.8 C 31 %
50 24-12-2019 08:12:17 6 C 30 %
Sensor: Nr:Datum:Temp:Feuchte:
Aussen-T/F 51 24-12-2019 08:22:17 6.2 C 29 %
52 24-12-2019 08:32:17 6.2 C 30 %
53 24-12-2019 08:42:17 6.3 C 30 %
54 24-12-2019 08:52:18 6.4 C 30 %
55 24-12-2019 09:02:17 6.5 C 29 %
56 24-12-2019 09:12:17 6.8 C 29 %
57 24-12-2019 09:22:17 6.8 C 28 %
58 24-12-2019 09:32:17 6.8 C 29 %
59 24-12-2019 09:42:17 6.8 C 28 %
60 24-12-2019 09:52:17 6.5 C 30 %
61 24-12-2019 10:02:17 6.4 C 30 %
62 24-12-2019 10:12:17 6.2 C 31 %
63 24-12-2019 10:22:17 6.2 C 33 %
64 24-12-2019 10:32:17 6.3 C 37 %
65 24-12-2019 10:42:17 6.8 C 37 %
66 24-12-2019 10:52:17 6.7 C 33 %
67 24-12-2019 11:02:17 6.8 C 35 %
68 24-12-2019 11:12:17 6.9 C 34 %
69 24-12-2019 11:22:17 7.5 C 32 %
70 24-12-2019 11:32:17 8 C 30 %
71 24-12-2019 11:42:17 8.2 C 29 %
72 24-12-2019 11:52:18 8 C 29 %
73 24-12-2019 12:02:17 7.8 C 30 %
74 24-12-2019 12:12:17 7.6 C 30 %
75 24-12-2019 12:22:17 8 C 28 %
Sensor: Nr:Datum:Temp:Feuchte:
Aussen-T/F 76 24-12-2019 12:32:17 8.2 C 27 %
77 24-12-2019 12:42:17 8.4 C 27 %
78 24-12-2019 12:52:18 8.9 C 27 %
79 24-12-2019 13:02:17 9.2 C 25 %
80 24-12-2019 13:12:17 9.3 C 25 %
81 24-12-2019 13:22:17 9.3 C 25 %
82 24-12-2019 13:32:17 9.2 C 26 %
83 24-12-2019 13:42:17 9.3 C 26 %
84 24-12-2019 13:52:17 9.3 C 26 %
85 24-12-2019 14:02:18 9.4 C 25 %
86 24-12-2019 14:12:18 9.5 C 25 %
87 24-12-2019 14:22:17 9.6 C 25 %
88 24-12-2019 14:32:18 9.7 C 25 %
89 24-12-2019 14:42:18 9.3 C 26 %
90 24-12-2019 14:52:17 9.2 C 27 %
91 24-12-2019 15:02:18 9.1 C 27 %
92 24-12-2019 15:12:18 9.5 C 26 %
93 24-12-2019 15:22:17 9.8 C 25 %
94 24-12-2019 15:32:17 10 C 22 %
95 24-12-2019 15:42:17 10.1 C 20 %
96 24-12-2019 15:52:17 10.5 C 20 %
97 24-12-2019 16:02:17 10.1 C 20 %
98 24-12-2019 16:12:17 10 C 20 %
99 24-12-2019 16:22:17 10.2 C 20 %
100 24-12-2019 16:32:17 9.8 C 20 %
Sensor: Nr:Datum:Temp:Feuchte:
Aussen-T/F 101 24-12-2019 16:42:17 9.7 C 21 %
102 24-12-2019 16:52:17 10.1 C 20 %
103 24-12-2019 17:02:17 9.8 C 20 %
104 24-12-2019 17:12:17 9.4 C 20 %
105 24-12-2019 17:22:18 9.6 C 20 %
106 24-12-2019 17:32:17 8.8 C 20 %
107 24-12-2019 17:42:17 9.1 C 20 %
108 24-12-2019 17:52:17 9.3 C 20 %
109 24-12-2019 18:02:17 9 C 20 %
110 24-12-2019 18:12:17 8.5 C 26 %
111 24-12-2019 18:22:17 8.9 C 25 %
112 24-12-2019 18:32:17 8.2 C 28 %
113 24-12-2019 18:42:17 7.8 C 31 %
114 24-12-2019 18:52:17 7.5 C 35 %
115 24-12-2019 19:02:17 7.6 C 31 %
116 24-12-2019 19:12:17 7.3 C 31 %
117 24-12-2019 19:22:17 6.7 C 35 %
118 24-12-2019 19:32:17 6.5 C 40 %
119 24-12-2019 19:42:17 6.5 C 36 %
120 24-12-2019 19:52:17 6.2 C 36 %
121 24-12-2019 20:02:17 6.7 C 35 %
122 24-12-2019 20:12:17 7.3 C 30 %
123 24-12-2019 20:22:17 7.2 C 32 %
124 24-12-2019 20:32:18 7.1 C 30 %
125 24-12-2019 20:42:18 7.3 C 31 %
Sensor: Nr:Datum:Temp:Feuchte:
Aussen-T/F 126 24-12-2019 20:52:17 7.3 C 30 %
127 24-12-2019 21:02:17 7.1 C 31 %
128 24-12-2019 21:12:17 7.7 C 30 %
129 24-12-2019 21:22:17 7.4 C 30 %
130 24-12-2019 21:32:17 7.6 C 30 %
131 24-12-2019 21:42:17 7.9 C 29 %
132 24-12-2019 21:52:17 8.1 C 28 %
133 24-12-2019 22:02:17 8.6 C 26 %
134 24-12-2019 22:12:17 8.5 C 26 %
135 24-12-2019 22:22:17 8.3 C 26 %
136 24-12-2019 22:32:17 8.4 C 26 %
137 24-12-2019 22:42:17 8.2 C 27 %
138 24-12-2019 22:52:17 8 C 28 %
139 24-12-2019 23:02:17 8.4 C 27 %
140 24-12-2019 23:12:17 8.4 C 27 %
141 24-12-2019 23:22:17 8.4 C 27 %
142 24-12-2019 23:32:17 8.5 C 27 %
143 24-12-2019 23:42:17 8.5 C 27 %
144 24-12-2019 23:52:17 8.4 C 27 %
145 25-12-2019 00:02:17 8.4 C 27 %
146 25-12-2019 00:12:17 8.4 C 27 %
147 25-12-2019 00:22:17 8.4 C 28 %
148 25-12-2019 00:32:17 8.3 C 28 %
149 25-12-2019 00:42:18 8.2 C 29 %
150 25-12-2019 00:52:17 8.2 C 29 %
Sensor: Nr:Datum:Temp:Feuchte:
Aussen-T/F 151 25-12-2019 01:02:17 7.8 C 32 %
152 25-12-2019 01:12:17 7.7 C 33 %
153 25-12-2019 01:22:17 7.5 C 35 %
154 25-12-2019 01:32:18 7.3 C 35 %
155 25-12-2019 01:42:18 7.5 C 35 %
156 25-12-2019 01:52:17 7.6 C 33 %
157 25-12-2019 02:02:17 7.7 C 32 %
158 25-12-2019 02:12:17 8 C 31 %
159 25-12-2019 02:22:17 7.9 C 31 %
160 25-12-2019 02:32:18 7.9 C 31 %
161 25-12-2019 02:42:18 7.9 C 31 %
162 25-12-2019 02:52:17 7.9 C 31 %
163 25-12-2019 03:02:17 7.8 C 31 %
164 25-12-2019 03:12:17 7.9 C 32 %
165 25-12-2019 03:22:17 8.1 C 31 %
166 25-12-2019 03:32:17 8.3 C 30 %
167 25-12-2019 03:42:17 8.2 C 30 %
168 25-12-2019 03:52:18 8.2 C 30 %
169 25-12-2019 04:02:17 7.9 C 34 %
170 25-12-2019 04:12:17 8 C 34 %
171 25-12-2019 04:22:18 7.9 C 35 %
172 25-12-2019 04:32:17 7.9 C 36 %
173 25-12-2019 04:42:17 7.9 C 38 %
174 25-12-2019 04:52:17 7.9 C 36 %
175 25-12-2019 05:02:17 7.9 C 37 %
Sensor: Nr:Datum:Temp:Feuchte:
Aussen-T/F 176 25-12-2019 05:12:17 7.8 C 37 %
177 25-12-2019 05:22:18 7.6 C 38 %
178 25-12-2019 05:32:17 8 C 36 %
179 25-12-2019 05:42:17 7.9 C 35 %
180 25-12-2019 05:52:17 7.5 C 35 %
181 25-12-2019 06:02:18 7.5 C 35 %
182 25-12-2019 06:12:18 7.2 C 36 %
183 25-12-2019 06:22:17 7.2 C 37 %
184 25-12-2019 06:32:18 7.3 C 37 %
185 25-12-2019 06:42:18 7.3 C 36 %
186 25-12-2019 06:52:17 7.1 C 39 %
187 25-12-2019 07:02:18 7.3 C 33 %
188 25-12-2019 07:12:18 7.1 C 32 %
189 25-12-2019 07:22:17 6.9 C 35 %
190 25-12-2019 07:32:18 6.8 C 38 %
191 25-12-2019 07:42:18 6.9 C 38 %
192 25-12-2019 07:52:17 7 C 35 %
193 25-12-2019 08:02:18 6.8 C 32 %
194 25-12-2019 08:12:18 6.4 C 32 %
195 25-12-2019 08:22:17 6.2 C 33 %
196 25-12-2019 08:32:17 6.2 C 32 %
197 25-12-2019 08:42:17 6.5 C 32 %
198 25-12-2019 08:52:17 6.7 C 31 %
199 25-12-2019 09:02:17 6.9 C 30 %
200 25-12-2019 09:12:17 6.9 C 30 %
Sensor: Nr:Datum:Temp:Feuchte:
Aussen-T/F 201 25-12-2019 09:22:18 6.8 C 30 %
202 25-12-2019 09:32:17 7.3 C 28 %
203 25-12-2019 09:42:17 7.3 C 27 %
204 25-12-2019 09:52:17 7.3 C 27 %
205 25-12-2019 10:02:17 7.1 C 29 %
206 25-12-2019 10:12:17 7.3 C 27 %
207 25-12-2019 10:22:18 7.6 C 26 %
208 25-12-2019 10:32:17 7.7 C 26 %
209 25-12-2019 10:42:17 7.8 C 25 %
210 25-12-2019 10:52:17 7.5 C 26 %
211 25-12-2019 11:02:17 7.5 C 26 %
212 25-12-2019 11:12:17 7.5 C 26 %
213 25-12-2019 11:22:17 7.7 C 26 %
214 25-12-2019 11:32:17 7.4 C 26 %
215 25-12-2019 11:42:17 7.4 C 27 %
216 25-12-2019 11:52:18 7.1 C 28 %
217 25-12-2019 12:02:17 7.1 C 29 %
218 25-12-2019 12:12:17 7.6 C 27 %
219 25-12-2019 12:22:17 7.6 C 27 %
220 25-12-2019 12:32:17 7.7 C 27 %
221 25-12-2019 12:42:17 7.8 C 27 %
222 25-12-2019 12:52:18 7.6 C 27 %
223 25-12-2019 13:02:17 7.1 C 29 %
224 25-12-2019 13:12:17 7 C 31 %
225 25-12-2019 13:22:18 6.9 C 31 %
Sensor: Nr:Datum:Temp:Feuchte:
Aussen-T/F 226 25-12-2019 13:32:17 7.1 C 30 %
227 25-12-2019 13:42:17 7 C 30 %
228 25-12-2019 13:52:17 6.9 C 30 %
229 25-12-2019 14:02:17 7.1 C 30 %
230 25-12-2019 14:12:17 7.4 C 29 %
231 25-12-2019 14:22:18 7.6 C 28 %
232 25-12-2019 14:32:17 7.7 C 29 %
233 25-12-2019 14:42:17 7.6 C 29 %
234 25-12-2019 14:52:17 7.1 C 31 %
235 25-12-2019 15:02:17 7.1 C 32 %
236 25-12-2019 15:12:17 7.1 C 30 %
237 25-12-2019 15:22:18 7.1 C 31 %
238 25-12-2019 15:32:17 7.4 C 30 %
239 25-12-2019 15:42:17 7.3 C 31 %
240 25-12-2019 15:52:17 7.2 C 30 %
241 25-12-2019 16:02:17 7.2 C 30 %
242 25-12-2019 16:12:17 6.9 C 31 %
243 25-12-2019 16:22:17 6.8 C 32 %
244 25-12-2019 16:32:17 6.7 C 35 %
245 25-12-2019 16:42:17 6.9 C 32 %
246 25-12-2019 16:52:17 6.9 C 31 %
247 25-12-2019 17:02:17 6.8 C 30 %
248 25-12-2019 17:12:17 6.7 C 30 %
249 25-12-2019 17:22:18 6.6 C 31 %
250 25-12-2019 17:32:17 6.2 C 31 %
Sensor: Nr:Datum:Temp:Feuchte:
Aussen-T/F 251 25-12-2019 17:42:17 5.7 C 35 %
252 25-12-2019 17:52:18 5.9 C 35 %
253 25-12-2019 18:02:17 6 C 33 %
254 25-12-2019 18:12:17 6.1 C 32 %
255 25-12-2019 18:22:17 6.2 C 33 %
256 25-12-2019 18:32:17 6.2 C 33 %
257 25-12-2019 18:42:17 6.2 C 32 %
258 25-12-2019 18:52:17 6.2 C 32 %
259 25-12-2019 19:02:17 6 C 33 %
260 25-12-2019 19:12:17 5.9 C 33 %
261 25-12-2019 19:22:17 6.1 C 32 %
262 25-12-2019 19:32:18 6.1 C 32 %
263 25-12-2019 19:42:18 6 C 33 %
264 25-12-2019 19:52:17 5.9 C 33 %
265 25-12-2019 20:02:17 5.8 C 35 %
266 25-12-2019 20:12:17 5.9 C 35 %
267 25-12-2019 20:22:18 5.9 C 34 %
268 25-12-2019 20:32:17 5.8 C 34 %
269 25-12-2019 20:42:17 5.6 C 37 %
270 25-12-2019 20:52:17 5.5 C 38 %
271 25-12-2019 21:02:18 5.5 C 38 %
272 25-12-2019 21:12:18 5.4 C 40 %
273 25-12-2019 21:22:17 5.3 C 41 %
274 25-12-2019 21:32:17 5.3 C 43 %
275 25-12-2019 21:42:17 5.3 C 42 %
Sensor: Nr:Datum:Temp:Feuchte:
Aussen-T/F 276 25-12-2019 21:52:17 5.2 C 42 %
277 25-12-2019 22:02:18 5.2 C 42 %
278 25-12-2019 22:12:18 5.1 C 43 %
279 25-12-2019 22:22:17 5.2 C 42 %
280 25-12-2019 22:32:18 5.1 C 41 %
281 25-12-2019 22:42:18 5.1 C 42 %
282 25-12-2019 22:52:17 5.2 C 42 %
283 25-12-2019 23:02:18 5.2 C 42 %
284 25-12-2019 23:12:18 5.2 C 42 %
285 25-12-2019 23:22:17 5.2 C 42 %
286 25-12-2019 23:32:17 5.1 C 42 %
287 25-12-2019 23:42:17 4.7 C 42 %
288 25-12-2019 23:52:17 4.5 C 42 %
289 26-12-2019 00:02:17 4.6 C 43 %
290 26-12-2019 00:12:18 4 C 42 %
291 26-12-2019 00:22:17 3.6 C 42 %
292 26-12-2019 00:32:18 3.9 C 44 %
293 26-12-2019 00:42:18 3.9 C 44 %
294 26-12-2019 00:52:17 4.1 C 43 %
295 26-12-2019 01:02:18 4.4 C 43 %
296 26-12-2019 01:12:18 4.3 C 43 %
297 26-12-2019 01:22:17 4.3 C 43 %
298 26-12-2019 01:32:17 4.4 C 43 %
299 26-12-2019 01:42:17 4.4 C 43 %
300 26-12-2019 01:52:17 4.3 C 42 %
Sensor: Nr:Datum:Temp:Feuchte:
Aussen-T/F 301 26-12-2019 02:02:18 4.3 C 42 %
302 26-12-2019 02:12:18 4.4 C 42 %
303 26-12-2019 02:22:17 4.2 C 42 %
304 26-12-2019 02:32:17 4 C 42 %
305 26-12-2019 02:42:17 4 C 42 %
306 26-12-2019 02:52:17 4.2 C 42 %
307 26-12-2019 03:02:18 4.2 C 42 %
308 26-12-2019 03:12:18 4.1 C 42 %
309 26-12-2019 03:22:17 4.1 C 42 %
310 26-12-2019 03:32:17 4.1 C 42 %
311 26-12-2019 03:42:17 4.1 C 42 %
312 26-12-2019 03:52:17 3.9 C 43 %
313 26-12-2019 04:02:17 3.6 C 42 %
314 26-12-2019 04:12:17 3.6 C 42 %
315 26-12-2019 04:22:18 3.4 C 42 %
316 26-12-2019 04:32:17 3 C 42 %
317 26-12-2019 04:42:17 3.1 C 42 %
318 26-12-2019 04:52:17 3.1 C 43 %
319 26-12-2019 05:02:17 3.3 C 43 %
320 26-12-2019 05:12:17 3.5 C 43 %
321 26-12-2019 05:22:17 3.4 C 43 %
322 26-12-2019 05:32:18 3.5 C 43 %
323 26-12-2019 05:42:18 3.4 C 43 %
324 26-12-2019 05:52:17 3.5 C 43 %
325 26-12-2019 06:02:17 3.6 C 43 %
Sensor: Nr:Datum:Temp:Feuchte:
Aussen-T/F 326 26-12-2019 06:12:18 3.6 C 43 %
327 26-12-2019 06:22:17 3.5 C 43 %
328 26-12-2019 06:32:18 3.6 C 43 %
329 26-12-2019 06:42:18 3.5 C 43 %
330 26-12-2019 06:52:17 3.5 C 43 %
331 26-12-2019 07:02:18 3.5 C 43 %
332 26-12-2019 07:12:18 3.5 C 43 %
333 26-12-2019 07:22:17 3.4 C 43 %
334 26-12-2019 07:32:17 3.4 C 43 %
335 26-12-2019 07:42:17 3.4 C 43 %
336 26-12-2019 07:52:17 3.4 C 43 %
337 26-12-2019 08:02:18 3.4 C 43 %
338 26-12-2019 08:12:18 3.4 C 43 %
339 26-12-2019 08:22:17 3.5 C 43 %
340 26-12-2019 08:32:17 3.4 C 43 %
341 26-12-2019 08:42:17 3.4 C 43 %
342 26-12-2019 08:52:17 3.5 C 43 %
343 26-12-2019 09:02:17 3.5 C 43 %
344 26-12-2019 09:12:17 3.5 C 43 %
345 26-12-2019 09:22:17 3.4 C 42 %
346 26-12-2019 09:32:17 3.5 C 43 %
347 26-12-2019 09:42:17 3.6 C 42 %
348 26-12-2019 09:52:18 3.6 C 42 %
349 26-12-2019 10:02:17 3.6 C 42 %
350 26-12-2019 10:12:17 3.6 C 42 %
Sensor: Nr:Datum:Temp:Feuchte:
Aussen-T/F 351 26-12-2019 10:22:18 3.8 C 42 %
352 26-12-2019 10:32:17 4 C 41 %
353 26-12-2019 10:42:17 4.3 C 41 %
354 26-12-2019 10:52:18 4.5 C 41 %
355 26-12-2019 11:02:17 4.7 C 41 %
356 26-12-2019 11:12:17 4.8 C 41 %
357 26-12-2019 11:22:17 5 C 40 %
358 26-12-2019 11:32:17 5.4 C 40 %
359 26-12-2019 11:42:17 5.5 C 39 %
360 26-12-2019 11:52:17 5.6 C 37 %
361 26-12-2019 12:02:17 5.7 C 36 %
362 26-12-2019 12:12:17 5.7 C 36 %
363 26-12-2019 12:22:17 5.7 C 35 %
364 26-12-2019 12:32:18 5.9 C 35 %
365 26-12-2019 12:42:18 6 C 35 %
366 26-12-2019 12:52:17 6 C 36 %
367 26-12-2019 13:02:18 5.9 C 36 %
368 26-12-2019 13:12:18 5.9 C 37 %
369 26-12-2019 13:22:17 5.8 C 36 %
370 26-12-2019 13:32:18 5.8 C 36 %
371 26-12-2019 13:42:18 5.7 C 36 %
372 26-12-2019 13:52:17 5.7 C 36 %
373 26-12-2019 14:02:18 5.7 C 36 %
374 26-12-2019 14:12:18 5.8 C 35 %
375 26-12-2019 14:22:17 6 C 35 %
Sensor: Nr:Datum:Temp:Feuchte:
Aussen-T/F 376 26-12-2019 14:32:17 6 C 35 %
377 26-12-2019 14:42:17 5.7 C 35 %
378 26-12-2019 14:52:17 5.6 C 36 %
379 26-12-2019 15:02:17 5.5 C 36 %
380 26-12-2019 15:12:17 5.4 C 36 %
381 26-12-2019 15:22:17 5.1 C 38 %
382 26-12-2019 15:32:17 5 C 37 %
383 26-12-2019 15:42:17 4.8 C 39 %
384 26-12-2019 15:52:18 4.8 C 39 %
385 26-12-2019 16:02:17 4.7 C 38 %
386 26-12-2019 16:12:17 4.6 C 39 %
387 26-12-2019 16:22:17 4.5 C 40 %
388 26-12-2019 16:32:17 4.4 C 41 %
389 26-12-2019 16:42:18 4.4 C 40 %
390 26-12-2019 16:53:17 4.3 C 41 %
391 26-12-2019 17:02:17 4.4 C 40 %
392 26-12-2019 17:12:17 4.3 C 40 %
393 26-12-2019 17:22:17 4.3 C 40 %
394 26-12-2019 17:32:17 4.4 C 40 %
395 26-12-2019 17:42:17 4.1 C 40 %
396 26-12-2019 17:52:17 4.1 C 40 %
397 26-12-2019 18:02:17 4 C 40 %
398 26-12-2019 18:12:17 4 C 41 %
399 26-12-2019 18:22:17 4.1 C 41 %
400 26-12-2019 18:32:17 4.1 C 41 %
Sensor: Nr:Datum:Temp:Feuchte:
Aussen-T/F 401 26-12-2019 18:42:18 4.1 C 40 %
402 26-12-2019 18:53:17 4.1 C 40 %
403 26-12-2019 19:02:17 4 C 40 %
404 26-12-2019 19:12:17 4 C 41 %
405 26-12-2019 19:23:17 4 C 41 %
406 26-12-2019 19:32:17 3.8 C 41 %
407 26-12-2019 19:42:17 4 C 41 %
408 26-12-2019 19:53:17 3.8 C 41 %
409 26-12-2019 20:02:17 3.8 C 42 %
410 26-12-2019 20:12:17 3.9 C 42 %
411 26-12-2019 20:23:17 4 C 41 %
412 26-12-2019 20:32:17 4.1 C 40 %
413 26-12-2019 20:42:17 4.2 C 39 %
414 26-12-2019 20:53:17 4.1 C 38 %
415 26-12-2019 21:02:17 4.3 C 37 %
416 26-12-2019 21:12:17 4.2 C 38 %
417 26-12-2019 21:23:17 4.1 C 38 %
418 26-12-2019 21:32:18 4.1 C 38 %
419 26-12-2019 21:42:18 4.2 C 37 %
420 26-12-2019 21:52:17 4.3 C 37 %
421 26-12-2019 22:02:18 4.1 C 39 %
422 26-12-2019 22:12:18 4.1 C 41 %
423 26-12-2019 22:22:17 4.1 C 41 %
424 26-12-2019 22:33:17 4.1 C 41 %
425 26-12-2019 22:43:17 4.1 C 42 %
Sensor: Nr:Datum:Temp:Feuchte:
Aussen-T/F 426 26-12-2019 22:52:17 4.1 C 42 %
427 26-12-2019 23:03:17 4.1 C 43 %
428 26-12-2019 23:13:17 4.1 C 43 %
429 26-12-2019 23:23:17 4 C 43 %
430 26-12-2019 23:32:17 4 C 43 %
431 26-12-2019 23:42:17 4 C 42 %
432 26-12-2019 23:53:17 4 C 42 %
433 27-12-2019 00:02:17 4 C 42 %
434 27-12-2019 00:12:17 4 C 42 %
435 27-12-2019 00:23:17 4 C 42 %
436 27-12-2019 00:32:17 4 C 42 %
437 27-12-2019 00:42:18 4.1 C 42 %
438 27-12-2019 00:53:17 4.1 C 42 %
439 27-12-2019 01:03:18 4.1 C 42 %
440 27-12-2019 01:13:18 4.1 C 42 %
441 27-12-2019 01:23:17 4.1 C 42 %
442 27-12-2019 01:33:17 4.1 C 42 %
443 27-12-2019 01:43:17 4.1 C 42 %
444 27-12-2019 01:53:18 4.1 C 42 %
445 27-12-2019 02:03:17 4.1 C 42 %
446 27-12-2019 02:13:17 4.1 C 42 %
447 27-12-2019 02:23:17 4.1 C 42 %
448 27-12-2019 02:33:18 4.1 C 42 %
449 27-12-2019 02:43:19 4.1 C 42 %
450 27-12-2019 02:53:17 4.2 C 42 %
Sensor: Nr:Datum:Temp:Feuchte:
Aussen-T/F 451 27-12-2019 03:03:17 4.3 C 42 %
452 27-12-2019 03:13:17 4.2 C 42 %
453 27-12-2019 03:23:17 4.3 C 42 %
454 27-12-2019 03:33:17 4.3 C 42 %
455 27-12-2019 03:43:18 4.3 C 42 %
456 27-12-2019 03:53:17 4.3 C 42 %
457 27-12-2019 04:03:17 4.3 C 42 %
458 27-12-2019 04:13:17 4.3 C 42 %
459 27-12-2019 04:23:17 4.3 C 42 %
460 27-12-2019 04:33:17 4.3 C 42 %
461 27-12-2019 04:43:17 4.3 C 42 %
462 27-12-2019 04:53:18 4.4 C 42 %
463 27-12-2019 05:03:17 4.4 C 42 %
464 27-12-2019 05:13:17 4.4 C 42 %
465 27-12-2019 05:23:17 4.4 C 42 %
466 27-12-2019 05:33:17 4.3 C 42 %
467 27-12-2019 05:43:17 4.4 C 42 %
468 27-12-2019 05:53:17 4.4 C 42 %
469 27-12-2019 06:03:17 4.4 C 42 %
470 27-12-2019 06:13:17 4.4 C 42 %
471 27-12-2019 06:23:17 4.4 C 42 %
472 27-12-2019 06:33:17 4.4 C 42 %
473 27-12-2019 06:43:17 4.4 C 42 %
474 27-12-2019 06:53:17 4.4 C 42 %
475 27-12-2019 07:03:17 4.5 C 42 %
Sensor: Nr:Datum:Temp:Feuchte:
Aussen-T/F 476 27-12-2019 07:13:17 4.4 C 42 %
477 27-12-2019 07:23:18 4.4 C 42 %
478 27-12-2019 07:33:17 4.4 C 42 %
479 27-12-2019 07:43:17 4.4 C 42 %
480 27-12-2019 07:53:17 4.3 C 42 %
481 27-12-2019 08:03:17 4.3 C 42 %
482 27-12-2019 08:13:17 4.3 C 42 %
483 27-12-2019 08:23:17 4.3 C 42 %
484 27-12-2019 08:33:17 4.3 C 42 %
485 27-12-2019 08:43:17 4.3 C 42 %
486 27-12-2019 08:53:18 4.3 C 42 %
487 27-12-2019 09:03:17 4.4 C 42 %
488 27-12-2019 09:13:17 4.4 C 42 %
489 27-12-2019 09:23:17 4.3 C 42 %
490 27-12-2019 09:33:17 4.5 C 42 %
491 27-12-2019 09:43:17 4.6 C 42 %
492 27-12-2019 09:53:17 4.8 C 41 %
493 27-12-2019 10:03:17 4.9 C 41 %
494 27-12-2019 10:13:17 4.8 C 40 %
495 27-12-2019 10:23:17 4.8 C 40 %
496 27-12-2019 10:33:18 4.9 C 40 %
497 27-12-2019 10:43:18 4.9 C 40 %
498 27-12-2019 10:53:17 5 C 38 %
499 27-12-2019 11:03:18 5 C 38 %
500 27-12-2019 11:13:18 5.1 C 37 %
Sensor: Nr:Datum:Temp:Feuchte:
Aussen-T/F 501 27-12-2019 11:23:17 5.1 C 37 %
502 27-12-2019 11:33:17 5.2 C 36 %
503 27-12-2019 11:43:17 5.7 C 33 %
504 27-12-2019 11:53:17 6 C 31 %
505 27-12-2019 12:03:17 6.1 C 31 %
506 27-12-2019 12:13:17 5.9 C 31 %
507 27-12-2019 12:23:17 5.9 C 31 %
508 27-12-2019 12:33:17 6 C 31 %
509 27-12-2019 12:43:17 6 C 31 %
510 27-12-2019 12:53:17 5.9 C 31 %
511 27-12-2019 13:03:17 5.7 C 31 %
512 27-12-2019 13:13:17 5.7 C 31 %
513 27-12-2019 13:23:17 5.6 C 31 %
514 27-12-2019 13:33:17 5.7 C 31 %
515 27-12-2019 13:43:17 5.7 C 30 %
516 27-12-2019 13:53:17 5.8 C 30 %
517 27-12-2019 14:03:18 5.9 C 30 %
518 27-12-2019 14:13:18 6.1 C 29 %
519 27-12-2019 14:23:18 5.9 C 29 %
520 27-12-2019 14:33:17 6 C 30 %
521 27-12-2019 14:43:17 5.9 C 28 %
522 27-12-2019 14:53:18 5.8 C 26 %
523 27-12-2019 15:03:17 5.7 C 27 %
524 27-12-2019 15:13:17 5.7 C 28 %
525 27-12-2019 15:23:18 5.6 C 29 %
Sensor: Nr:Datum:Temp:Feuchte:
Aussen-T/F 526 27-12-2019 15:33:17 5.6 C 29 %
527 27-12-2019 15:43:17 5.4 C 30 %
528 27-12-2019 15:53:17 5.3 C 31 %
529 27-12-2019 16:03:17 5.1 C 33 %
530 27-12-2019 16:13:17 4.9 C 33 %
531 27-12-2019 16:23:17 4.9 C 33 %
532 27-12-2019 16:33:17 4.8 C 34 %
533 27-12-2019 16:43:17 4.7 C 33 %
534 27-12-2019 16:53:17 4.6 C 34 %
535 27-12-2019 17:03:17 4.5 C 34 %
536 27-12-2019 17:13:17 4.5 C 35 %
537 27-12-2019 17:23:17 4.5 C 33 %
538 27-12-2019 17:33:18 4.5 C 34 %
539 27-12-2019 17:43:18 4.5 C 34 %
540 27-12-2019 17:53:17 4.4 C 34 %
541 27-12-2019 18:03:18 4.4 C 33 %
542 27-12-2019 18:13:18 4.4 C 33 %
543 27-12-2019 18:23:17 4.4 C 32 %
544 27-12-2019 18:33:18 4.4 C 34 %
545 27-12-2019 18:43:18 4.3 C 34 %
546 27-12-2019 18:53:17 4.2 C 33 %
547 27-12-2019 19:03:17 4.2 C 33 %
548 27-12-2019 19:13:17 4.2 C 33 %
549 27-12-2019 19:23:17 4.3 C 32 %
550 27-12-2019 19:33:17 4.2 C 33 %
Sensor: Nr:Datum:Temp:Feuchte:
Aussen-T/F 551 27-12-2019 19:43:17 4.1 C 34 %
552 27-12-2019 19:53:18 3.9 C 35 %
553 27-12-2019 20:03:17 3.8 C 34 %
554 27-12-2019 20:13:17 4 C 32 %
555 27-12-2019 20:23:17 4 C 32 %
556 27-12-2019 20:33:18 4 C 32 %
557 27-12-2019 20:43:18 4 C 31 %
558 27-12-2019 20:53:17 4.1 C 31 %
559 27-12-2019 21:03:18 4.1 C 31 %
560 27-12-2019 21:13:18 4 C 31 %
561 27-12-2019 21:23:17 4 C 31 %
562 27-12-2019 21:33:18 3.9 C 33 %
563 27-12-2019 21:43:18 3.9 C 32 %
564 27-12-2019 21:53:17 3.7 C 32 %
565 27-12-2019 22:03:17 3.6 C 32 %
566 27-12-2019 22:13:17 3.3 C 32 %
567 27-12-2019 22:23:17 3.2 C 32 %
568 27-12-2019 22:33:17 2.7 C 33 %
569 27-12-2019 22:43:17 2.2 C 34 %
570 27-12-2019 22:53:17 2 C 35 %
571 27-12-2019 23:03:18 1.7 C 38 %
572 27-12-2019 23:13:18 1.3 C 39 %
573 27-12-2019 23:23:17 1.2 C 41 %
574 27-12-2019 23:33:17 0.9 C 42 %
575 27-12-2019 23:43:17 0.8 C 41 %
Sensor: Nr:Datum:Temp:Feuchte:
Aussen-T/F 576 27-12-2019 23:53:17 0.7 C 41 %
577 28-12-2019 00:03:17 0.5 C 40 %
578 28-12-2019 00:13:17 0.4 C 41 %
579 28-12-2019 00:23:18 0.4 C 41 %
580 28-12-2019 00:33:17 0.3 C 41 %
581 28-12-2019 00:43:17 0.3 C 41 %
582 28-12-2019 00:53:17 0.2 C 40 %
583 28-12-2019 01:03:17 0.1 C 40 %
584 28-12-2019 01:13:17 -0.2 C 43 %
585 28-12-2019 01:23:17 -0.5 C 43 %
586 28-12-2019 01:33:17 -0.3 C 44 %
587 28-12-2019 01:43:17 -0.7 C 42 %
588 28-12-2019 01:53:17 -1.1 C 43 %
589 28-12-2019 02:03:17 -1.3 C 45 %
590 28-12-2019 02:13:17 -1.5 C 44 %
591 28-12-2019 02:23:17 -1.7 C 44 %
592 28-12-2019 02:33:18 -1.5 C 45 %
593 28-12-2019 02:43:18 -1.5 C 45 %
594 28-12-2019 02:53:17 -1.6 C 45 %
595 28-12-2019 03:03:17 -1.9 C 45 %
596 28-12-2019 03:13:18 -1.7 C 45 %
597 28-12-2019 03:23:17 -2.1 C 45 %
598 28-12-2019 03:33:17 -2.1 C 45 %
599 28-12-2019 03:43:17 -2.1 C 45 %
600 28-12-2019 03:53:18 -2.4 C 45 %
Sensor: Nr:Datum:Temp:Feuchte:
Aussen-T/F 601 28-12-2019 04:03:17 -2.4 C 45 %
602 28-12-2019 04:13:17 -2.4 C 45 %
603 28-12-2019 04:23:17 -2.3 C 45 %
604 28-12-2019 04:33:17 -2.4 C 45 %
605 28-12-2019 04:43:18 -2.3 C 45 %
606 28-12-2019 04:53:17 -2.4 C 45 %
607 28-12-2019 05:03:18 -2.6 C 44 %
608 28-12-2019 05:13:18 -2.7 C 44 %
609 28-12-2019 05:23:17 -2.5 C 45 %
610 28-12-2019 05:33:18 -2.5 C 45 %
611 28-12-2019 05:43:18 -2.1 C 45 %
612 28-12-2019 05:53:17 -2.3 C 45 %
613 28-12-2019 06:03:17 -1.8 C 45 %
614 28-12-2019 06:13:18 -2.1 C 44 %
615 28-12-2019 06:23:17 -2.2 C 43 %
616 28-12-2019 06:33:17 -2 C 44 %
617 28-12-2019 06:43:18 -1.9 C 44 %
618 28-12-2019 06:53:17 -2.1 C 43 %
619 28-12-2019 07:03:18 -2 C 43 %
620 28-12-2019 07:13:18 -2.3 C 43 %
621 28-12-2019 07:23:17 -2.8 C 42 %
622 28-12-2019 07:33:17 -2.3 C 43 %
623 28-12-2019 07:43:17 -2.4 C 43 %
624 28-12-2019 07:53:17 -2.2 C 44 %
625 28-12-2019 08:03:17 -2.6 C 43 %
Sensor: Nr:Datum:Temp:Feuchte:
Aussen-T/F 626 28-12-2019 08:13:17 -3 C 42 %
627 28-12-2019 08:23:18 -3.1 C 42 %
628 28-12-2019 08:33:17 -3.2 C 42 %
629 28-12-2019 08:43:17 -3.2 C 42 %
630 28-12-2019 08:53:17 -2.9 C 43 %
631 28-12-2019 09:03:18 -2.9 C 43 %
632 28-12-2019 09:13:18 -2.8 C 43 %
633 28-12-2019 09:23:17 -2.7 C 43 %
634 28-12-2019 09:33:17 -2.5 C 43 %
635 28-12-2019 09:43:17 -1.9 C 45 %
636 28-12-2019 09:53:17 -1.7 C 45 %
637 28-12-2019 10:03:17 -1.6 C 45 %
638 28-12-2019 10:13:17 -1.4 C 45 %
639 28-12-2019 10:23:17 -1.5 C 45 %
640 28-12-2019 10:33:18 -1.3 C 45 %
641 28-12-2019 10:43:18 -1.3 C 45 %
642 28-12-2019 10:53:17 -1.1 C 45 %
643 28-12-2019 11:03:18 -1 C 44 %
644 28-12-2019 11:13:18 -0.9 C 44 %
645 28-12-2019 11:23:17 -0.6 C 44 %
646 28-12-2019 11:33:17 -0.5 C 43 %
647 28-12-2019 11:43:18 -0.3 C 42 %
648 28-12-2019 11:53:17 -0.2 C 42 %
649 28-12-2019 12:03:17 -0.2 C 41 %
650 28-12-2019 12:13:17 0 C 41 %
Sensor: Nr:Datum:Temp:Feuchte:
Aussen-T/F 651 28-12-2019 12:23:17 0.2 C 41 %
652 28-12-2019 12:33:17 0.3 C 41 %
653 28-12-2019 12:43:18 0.4 C 40 %
654 28-12-2019 12:53:17 0.5 C 40 %
655 28-12-2019 13:03:18 0.7 C 40 %
656 28-12-2019 13:13:18 0.8 C 40 %
657 28-12-2019 13:23:17 0.8 C 40 %
658 28-12-2019 13:33:17 0.9 C 40 %
659 28-12-2019 13:43:17 0.8 C 40 %
660 28-12-2019 13:53:17 0.6 C 40 %
661 28-12-2019 14:03:17 0.6 C 41 %
662 28-12-2019 14:13:17 0.7 C 41 %
663 28-12-2019 14:23:17 0.8 C 40 %
664 28-12-2019 14:33:17 0.7 C 40 %
665 28-12-2019 14:43:17 0.6 C 40 %
666 28-12-2019 14:53:17 0.5 C 40 %
667 28-12-2019 15:03:17 0.5 C 40 %
668 28-12-2019 15:13:18 0.5 C 40 %
669 28-12-2019 15:23:17 0.2 C 40 %
670 28-12-2019 15:33:17 0.4 C 40 %
671 28-12-2019 15:43:17 0.3 C 39 %
672 28-12-2019 15:53:18 0.4 C 39 %
673 28-12-2019 16:03:17 0.3 C 38 %
674 28-12-2019 16:13:17 0.2 C 38 %
675 28-12-2019 16:23:17 0 C 39 %
Sensor: Nr:Datum:Temp:Feuchte:
Aussen-T/F 676 28-12-2019 16:33:17 0 C 39 %
677 28-12-2019 16:43:17 -0.1 C 38 %
678 28-12-2019 16:53:17 -0.3 C 39 %
679 28-12-2019 17:03:17 -0.4 C 39 %
680 28-12-2019 17:13:17 -0.4 C 40 %
681 28-12-2019 17:23:17 -0.5 C 40 %
682 28-12-2019 17:33:18 -0.6 C 40 %
683 28-12-2019 17:43:18 -0.7 C 41 %
684 28-12-2019 17:53:17 -1.3 C 41 %
685 28-12-2019 18:03:17 -1.2 C 44 %
686 28-12-2019 18:13:17 -1.1 C 43 %
687 28-12-2019 18:23:17 -1.1 C 43 %
688 28-12-2019 18:33:17 -0.9 C 43 %
689 28-12-2019 18:43:17 -1.2 C 43 %
690 28-12-2019 18:53:17 -0.9 C 43 %
691 28-12-2019 19:03:17 -1.2 C 42 %
692 28-12-2019 19:13:18 -1.7 C 42 %
693 28-12-2019 19:23:17 -1.9 C 43 %
694 28-12-2019 19:33:18 -1.9 C 44 %
695 28-12-2019 19:43:18 -1.9 C 44 %
696 28-12-2019 19:53:17 -1.8 C 44 %
697 28-12-2019 20:03:17 -1.9 C 44 %
698 28-12-2019 20:13:17 -1.7 C 45 %
699 28-12-2019 20:23:17 -1.2 C 45 %
700 28-12-2019 20:33:18 -1.2 C 43 %
Sensor: Nr:Datum:Temp:Feuchte:
Aussen-T/F 701 28-12-2019 20:43:18 -1.4 C 43 %
702 28-12-2019 20:53:18 -1.2 C 44 %
703 28-12-2019 21:03:17 -1.6 C 43 %
704 28-12-2019 21:13:17 -1.3 C 44 %
705 28-12-2019 21:23:17 -1.4 C 41 %
706 28-12-2019 21:33:17 -1.8 C 41 %
707 28-12-2019 21:43:18 -1.6 C 43 %
708 28-12-2019 21:53:17 -1.7 C 42 %
709 28-12-2019 22:03:18 -1.7 C 42 %
710 28-12-2019 22:13:18 -2.2 C 41 %
711 28-12-2019 22:23:17 -2.3 C 42 %
712 28-12-2019 22:33:17 -2.3 C 42 %
713 28-12-2019 22:43:17 -2.5 C 42 %
714 28-12-2019 22:53:17 -2.2 C 43 %
715 28-12-2019 23:03:17 -2.5 C 42 %
716 28-12-2019 23:13:17 -2.3 C 43 %
717 28-12-2019 23:23:17 -2.3 C 43 %
718 28-12-2019 23:33:17 -2.7 C 42 %
719 28-12-2019 23:43:17 -2.6 C 43 %
720 28-12-2019 23:53:17 -2.9 C 42 %
Sensor: Nr:Datum:Temp:Feuchte:
G-T/H 1 24-12-2019 00:02:17 10.3 C 75 %
2 24-12-2019 00:12:17 10.3 C 75 %
3 24-12-2019 00:22:17 10.3 C 75 %
4 24-12-2019 00:32:18 10.3 C 75 %
5 24-12-2019 00:42:18 10.3 C 75 %
6 24-12-2019 00:52:17 10.3 C 75 %
7 24-12-2019 01:02:17 10.3 C 75 %
8 24-12-2019 01:12:17 10.3 C 75 %
9 24-12-2019 01:22:17 10.3 C 75 %
10 24-12-2019 01:32:17 10.3 C 75 %
11 24-12-2019 01:42:17 10.2 C 75 %
12 24-12-2019 01:52:17 10.2 C 75 %
13 24-12-2019 02:02:17 10.2 C 75 %
14 24-12-2019 02:12:17 10.2 C 75 %
15 24-12-2019 02:22:17 10.2 C 75 %
16 24-12-2019 02:32:18 10.2 C 75 %
17 24-12-2019 02:42:18 10.2 C 75 %
18 24-12-2019 02:52:17 10.2 C 75 %
19 24-12-2019 03:02:18 10.2 C 75 %
20 24-12-2019 03:12:18 10.2 C 75 %
21 24-12-2019 03:22:17 10.2 C 75 %
22 24-12-2019 03:32:17 10.2 C 75 %
23 24-12-2019 03:42:17 10.2 C 75 %
24 24-12-2019 03:52:17 10.2 C 75 %
25 24-12-2019 04:02:17 10.2 C 75 %
Sensor: Nr:Datum:Temp:Feuchte:
G-T/H 26 24-12-2019 04:12:17 10.2 C 75 %
27 24-12-2019 04:22:17 10.2 C 75 %
28 24-12-2019 04:32:17 10.2 C 75 %
29 24-12-2019 04:42:17 10.1 C 75 %
30 24-12-2019 04:52:17 10.2 C 75 %
31 24-12-2019 05:02:18 10.2 C 75 %
32 24-12-2019 05:12:18 10.1 C 75 %
33 24-12-2019 05:22:17 10.1 C 75 %
34 24-12-2019 05:32:18 10.1 C 75 %
35 24-12-2019 05:42:18 10.1 C 75 %
36 24-12-2019 05:52:17 10.1 C 75 %
37 24-12-2019 06:02:18 10.1 C 75 %
38 24-12-2019 06:12:18 10.1 C 75 %
39 24-12-2019 06:22:17 10.1 C 75 %
40 24-12-2019 06:32:17 10.1 C 75 %
41 24-12-2019 06:42:17 10.1 C 74 %
42 24-12-2019 06:52:17 10 C 74 %
43 24-12-2019 07:02:17 10.1 C 74 %
44 24-12-2019 07:12:17 10.1 C 74 %
45 24-12-2019 07:22:17 10.1 C 74 %
46 24-12-2019 07:32:17 10.1 C 74 %
47 24-12-2019 07:42:17 10.1 C 74 %
48 24-12-2019 07:52:17 10.1 C 74 %
49 24-12-2019 08:02:17 10.1 C 74 %
50 24-12-2019 08:12:17 10.1 C 74 %
Sensor: Nr:Datum:Temp:Feuchte:
G-T/H 51 24-12-2019 08:22:17 10 C 74 %
52 24-12-2019 08:32:17 10 C 74 %
53 24-12-2019 08:42:17 10 C 74 %
54 24-12-2019 08:52:18 10 C 74 %
55 24-12-2019 09:02:17 10 C 74 %
56 24-12-2019 09:12:17 10 C 74 %
57 24-12-2019 09:22:17 10 C 75 %
58 24-12-2019 09:32:17 10 C 74 %
59 24-12-2019 09:42:17 10 C 75 %
60 24-12-2019 09:52:17 10 C 75 %
61 24-12-2019 10:02:17 10 C 75 %
62 24-12-2019 10:12:17 10 C 75 %
63 24-12-2019 10:22:17 10 C 75 %
64 24-12-2019 10:32:17 10 C 75 %
65 24-12-2019 10:42:17 10 C 75 %
66 24-12-2019 10:52:17 10 C 75 %
67 24-12-2019 11:02:17 10 C 75 %
68 24-12-2019 11:12:17 10 C 75 %
69 24-12-2019 11:22:17 10 C 75 %
70 24-12-2019 11:32:17 10 C 75 %
71 24-12-2019 11:42:17 10 C 75 %
72 24-12-2019 11:52:18 10 C 75 %
73 24-12-2019 12:02:17 10 C 75 %
74 24-12-2019 12:12:17 10 C 75 %
75 24-12-2019 12:22:17 10 C 75 %
Sensor: Nr:Datum:Temp:Feuchte:
G-T/H 76 24-12-2019 12:32:17 10 C 75 %
77 24-12-2019 12:42:17 10 C 75 %
78 24-12-2019 12:52:18 10 C 75 %
79 24-12-2019 13:02:17 10 C 75 %
80 24-12-2019 13:12:17 10 C 75 %
81 24-12-2019 13:22:17 10 C 75 %
82 24-12-2019 13:32:17 10.1 C 75 %
83 24-12-2019 13:42:17 10.1 C 75 %
84 24-12-2019 13:52:17 10 C 75 %
85 24-12-2019 14:02:18 10 C 75 %
86 24-12-2019 14:12:18 10.1 C 75 %
87 24-12-2019 14:22:17 10 C 75 %
88 24-12-2019 14:32:18 10.1 C 75 %
89 24-12-2019 14:42:18 10.1 C 75 %
90 24-12-2019 14:52:17 10.1 C 75 %
91 24-12-2019 15:02:18 10 C 75 %
92 24-12-2019 15:12:18 10.1 C 75 %
93 24-12-2019 15:22:17 10.1 C 75 %
94 24-12-2019 15:32:17 10.1 C 75 %
95 24-12-2019 15:42:17 10.1 C 75 %
96 24-12-2019 15:52:17 10.1 C 75 %
97 24-12-2019 16:02:17 10.1 C 75 %
98 24-12-2019 16:12:17 10.1 C 75 %
99 24-12-2019 16:22:17 10.1 C 75 %
100 24-12-2019 16:32:17 10.1 C 75 %
Sensor: Nr:Datum:Temp:Feuchte:
G-T/H 101 24-12-2019 16:42:17 10.1 C 75 %
102 24-12-2019 16:52:17 10.1 C 75 %
103 24-12-2019 17:02:17 10.1 C 75 %
104 24-12-2019 17:12:17 10.1 C 75 %
105 24-12-2019 17:22:18 10.1 C 75 %
106 24-12-2019 17:32:17 10.1 C 75 %
107 24-12-2019 17:42:17 10.1 C 75 %
108 24-12-2019 17:52:17 10.2 C 75 %
109 24-12-2019 18:02:17 10.2 C 75 %
110 24-12-2019 18:12:17 10.2 C 75 %
111 24-12-2019 18:22:17 10.2 C 75 %
112 24-12-2019 18:32:17 10.2 C 75 %
113 24-12-2019 18:42:17 10.2 C 75 %
114 24-12-2019 18:52:17 10.2 C 75 %
115 24-12-2019 19:02:17 10.2 C 75 %
116 24-12-2019 19:12:17 10.2 C 75 %
117 24-12-2019 19:22:17 10.2 C 75 %
118 24-12-2019 19:32:17 10.2 C 75 %
119 24-12-2019 19:42:17 10.2 C 75 %
120 24-12-2019 19:52:17 10.2 C 76 %
121 24-12-2019 20:02:17 10.2 C 75 %
122 24-12-2019 20:12:17 10.2 C 75 %
123 24-12-2019 20:22:17 10.1 C 75 %
124 24-12-2019 20:32:18 10.1 C 75 %
125 24-12-2019 20:42:18 10.2 C 75 %
Sensor: Nr:Datum:Temp:Feuchte:
G-T/H 126 24-12-2019 20:52:17 10.2 C 75 %
127 24-12-2019 21:02:17 10.2 C 75 %
128 24-12-2019 21:12:17 10.2 C 75 %
129 24-12-2019 21:22:17 10.2 C 75 %
130 24-12-2019 21:32:17 10.2 C 75 %
131 24-12-2019 21:42:17 10.2 C 75 %
132 24-12-2019 21:52:17 10.2 C 75 %
133 24-12-2019 22:02:17 10.2 C 75 %
134 24-12-2019 22:12:17 10.2 C 75 %
135 24-12-2019 22:22:17 10.1 C 75 %
136 24-12-2019 22:32:17 10.2 C 75 %
137 24-12-2019 22:42:17 10.2 C 75 %
138 24-12-2019 22:52:17 10.2 C 76 %
139 24-12-2019 23:02:17 10.2 C 76 %
140 24-12-2019 23:12:17 10.2 C 76 %
141 24-12-2019 23:22:17 10.2 C 76 %
142 24-12-2019 23:32:17 10.2 C 76 %
143 24-12-2019 23:42:17 10.2 C 76 %
144 24-12-2019 23:52:17 10.2 C 76 %
145 25-12-2019 00:02:17 10.2 C 76 %
146 25-12-2019 00:12:17 10.2 C 76 %
147 25-12-2019 00:22:17 10.2 C 76 %
148 25-12-2019 00:32:17 10.2 C 76 %
149 25-12-2019 00:42:18 10.2 C 76 %
150 25-12-2019 00:52:17 10.2 C 76 %
Sensor: Nr:Datum:Temp:Feuchte:
G-T/H 151 25-12-2019 01:02:17 10.2 C 76 %
152 25-12-2019 01:12:17 10.2 C 76 %
153 25-12-2019 01:22:17 10.2 C 76 %
154 25-12-2019 01:32:18 10.2 C 76 %
155 25-12-2019 01:42:18 10.2 C 76 %
156 25-12-2019 01:52:17 10.2 C 76 %
157 25-12-2019 02:02:17 10.2 C 76 %
158 25-12-2019 02:12:17 10.2 C 76 %
159 25-12-2019 02:22:17 10.2 C 76 %
160 25-12-2019 02:32:18 10.2 C 76 %
161 25-12-2019 02:42:18 10.2 C 76 %
162 25-12-2019 02:52:17 10.2 C 76 %
163 25-12-2019 03:02:17 10.2 C 76 %
164 25-12-2019 03:12:17 10.2 C 76 %
165 25-12-2019 03:22:17 10.2 C 76 %
166 25-12-2019 03:32:17 10.2 C 76 %
167 25-12-2019 03:42:17 10.2 C 76 %
168 25-12-2019 03:52:18 10.2 C 76 %
169 25-12-2019 04:02:17 10.2 C 76 %
170 25-12-2019 04:12:17 10.2 C 76 %
171 25-12-2019 04:22:18 10.2 C 76 %
172 25-12-2019 04:32:17 10.2 C 76 %
173 25-12-2019 04:42:17 10.2 C 76 %
174 25-12-2019 04:52:17 10.2 C 76 %
175 25-12-2019 05:02:17 10.2 C 76 %
Sensor: Nr:Datum:Temp:Feuchte:
G-T/H 176 25-12-2019 05:12:17 10.2 C 76 %
177 25-12-2019 05:22:18 10.2 C 76 %
178 25-12-2019 05:32:17 10.2 C 76 %
179 25-12-2019 05:42:17 10.2 C 76 %
180 25-12-2019 05:52:17 10.2 C 76 %
181 25-12-2019 06:02:18 10.2 C 76 %
182 25-12-2019 06:12:18 10.2 C 76 %
183 25-12-2019 06:22:17 10.2 C 76 %
184 25-12-2019 06:32:18 10.2 C 76 %
185 25-12-2019 06:42:18 10.2 C 76 %
186 25-12-2019 06:52:17 10.2 C 76 %
187 25-12-2019 07:02:18 10.2 C 76 %
188 25-12-2019 07:12:18 10.2 C 76 %
189 25-12-2019 07:22:17 10.2 C 76 %
190 25-12-2019 07:32:18 10.2 C 76 %
191 25-12-2019 07:42:18 10.2 C 76 %
192 25-12-2019 07:52:17 10.2 C 76 %
193 25-12-2019 08:02:18 10.2 C 76 %
194 25-12-2019 08:12:18 10.2 C 76 %
195 25-12-2019 08:22:17 10.2 C 76 %
196 25-12-2019 08:32:17 10.2 C 76 %
197 25-12-2019 08:42:17 10.2 C 76 %
198 25-12-2019 08:52:17 10.2 C 76 %
199 25-12-2019 09:02:17 10.2 C 76 %
200 25-12-2019 09:12:17 10.2 C 76 %
Sensor: Nr:Datum:Temp:Feuchte:
G-T/H 201 25-12-2019 09:22:18 10.2 C 76 %
202 25-12-2019 09:32:17 10.2 C 76 %
203 25-12-2019 09:42:17 10.2 C 76 %
204 25-12-2019 09:52:17 10.2 C 76 %
205 25-12-2019 10:02:17 10.2 C 76 %
206 25-12-2019 10:12:17 10.2 C 76 %
207 25-12-2019 10:22:18 10.2 C 76 %
208 25-12-2019 10:32:17 10.2 C 76 %
209 25-12-2019 10:42:17 10.2 C 76 %
210 25-12-2019 10:52:17 10.3 C 76 %
211 25-12-2019 11:02:17 10.3 C 76 %
212 25-12-2019 11:12:17 10.3 C 76 %
213 25-12-2019 11:22:17 10.2 C 76 %
214 25-12-2019 11:32:17 10.3 C 76 %
215 25-12-2019 11:42:17 10.2 C 76 %
216 25-12-2019 11:52:18 10.3 C 76 %
217 25-12-2019 12:02:17 10.2 C 76 %
218 25-12-2019 12:12:17 10.2 C 76 %
219 25-12-2019 12:22:17 10.3 C 76 %
220 25-12-2019 12:32:17 10.3 C 76 %
221 25-12-2019 12:42:17 10.3 C 76 %
222 25-12-2019 12:52:18 10.3 C 76 %
223 25-12-2019 13:02:17 10.3 C 76 %
224 25-12-2019 13:12:17 10.2 C 76 %
225 25-12-2019 13:22:18 10.3 C 76 %
Sensor: Nr:Datum:Temp:Feuchte:
G-T/H 226 25-12-2019 13:32:17 10.3 C 76 %
227 25-12-2019 13:42:17 10.2 C 76 %
228 25-12-2019 13:52:17 10.2 C 76 %
229 25-12-2019 14:02:17 10.3 C 76 %
230 25-12-2019 14:12:17 10.3 C 76 %
231 25-12-2019 14:22:18 10.3 C 76 %
232 25-12-2019 14:32:17 10.3 C 76 %
233 25-12-2019 14:42:17 10.3 C 76 %
234 25-12-2019 14:52:17 10.3 C 76 %
235 25-12-2019 15:02:17 10.2 C 76 %
236 25-12-2019 15:12:17 10.3 C 76 %
237 25-12-2019 15:22:18 10.3 C 76 %
238 25-12-2019 15:32:17 10.3 C 76 %
239 25-12-2019 15:42:17 10.3 C 76 %
240 25-12-2019 15:52:17 10.3 C 76 %
241 25-12-2019 16:02:17 10.3 C 76 %
242 25-12-2019 16:12:17 10.3 C 76 %
243 25-12-2019 16:22:17 10.3 C 76 %
244 25-12-2019 16:32:17 10.3 C 76 %
245 25-12-2019 16:42:17 10.3 C 76 %
246 25-12-2019 16:52:17 10.3 C 76 %
247 25-12-2019 17:02:17 10.3 C 76 %
248 25-12-2019 17:12:17 10.3 C 76 %
249 25-12-2019 17:22:18 10.3 C 76 %
250 25-12-2019 17:32:17 10.3 C 76 %
Sensor: Nr:Datum:Temp:Feuchte:
G-T/H 251 25-12-2019 17:42:17 10.3 C 76 %
252 25-12-2019 17:52:18 10.3 C 76 %
253 25-12-2019 18:02:17 10.3 C 76 %
254 25-12-2019 18:12:17 10.3 C 76 %
255 25-12-2019 18:22:17 10.3 C 76 %
256 25-12-2019 18:32:17 10.3 C 76 %
257 25-12-2019 18:42:17 10.3 C 76 %
258 25-12-2019 18:52:17 10.3 C 76 %
259 25-12-2019 19:02:17 10.3 C 76 %
260 25-12-2019 19:12:17 10.3 C 76 %
261 25-12-2019 19:22:17 10.3 C 76 %
262 25-12-2019 19:32:18 10.3 C 76 %
263 25-12-2019 19:42:18 10.3 C 76 %
264 25-12-2019 19:52:17 10.3 C 76 %
265 25-12-2019 20:02:17 10.3 C 76 %
266 25-12-2019 20:12:17 10.3 C 76 %
267 25-12-2019 20:22:18 10.3 C 76 %
268 25-12-2019 20:32:17 10.3 C 76 %
269 25-12-2019 20:42:17 10.3 C 76 %
270 25-12-2019 20:52:17 10.3 C 76 %
271 25-12-2019 21:02:18 10.3 C 76 %
272 25-12-2019 21:12:18 10.3 C 76 %
273 25-12-2019 21:22:17 10.3 C 76 %
274 25-12-2019 21:32:17 10.3 C 76 %
275 25-12-2019 21:42:17 10.3 C 76 %
Sensor: Nr:Datum:Temp:Feuchte:
G-T/H 276 25-12-2019 21:52:17 10.2 C 76 %
277 25-12-2019 22:02:18 10.3 C 76 %
278 25-12-2019 22:12:18 10.3 C 76 %
279 25-12-2019 22:22:17 10.3 C 76 %
280 25-12-2019 22:32:18 10.3 C 76 %
281 25-12-2019 22:42:18 10.3 C 76 %
282 25-12-2019 22:52:17 10.2 C 76 %
283 25-12-2019 23:02:18 10.2 C 76 %
284 25-12-2019 23:12:18 10.3 C 75 %
285 25-12-2019 23:22:17 10.2 C 75 %
286 25-12-2019 23:32:17 10.2 C 75 %
287 25-12-2019 23:42:17 10.2 C 75 %
288 25-12-2019 23:52:17 10.2 C 75 %
289 26-12-2019 00:02:17 10.2 C 75 %
290 26-12-2019 00:12:18 10.2 C 75 %
291 26-12-2019 00:22:17 10.2 C 75 %
292 26-12-2019 00:32:18 10.2 C 75 %
293 26-12-2019 00:42:18 10.2 C 75 %
294 26-12-2019 00:52:17 10.2 C 75 %
295 26-12-2019 01:02:18 10.2 C 75 %
296 26-12-2019 01:12:18 10.2 C 75 %
297 26-12-2019 01:22:17 10.2 C 75 %
298 26-12-2019 01:32:17 10.2 C 75 %
299 26-12-2019 01:42:17 10.2 C 75 %
300 26-12-2019 01:52:17 10.2 C 75 %
Sensor: Nr:Datum:Temp:Feuchte:
G-T/H 301 26-12-2019 02:02:18 10.2 C 75 %
302 26-12-2019 02:12:18 10.1 C 75 %
303 26-12-2019 02:22:17 10.1 C 75 %
304 26-12-2019 02:32:17 10.2 C 75 %
305 26-12-2019 02:42:17 10.2 C 75 %
306 26-12-2019 02:52:17 10.1 C 75 %
307 26-12-2019 03:02:18 10.1 C 75 %
308 26-12-2019 03:12:18 10.2 C 75 %
309 26-12-2019 03:22:17 10.2 C 75 %
310 26-12-2019 03:32:17 10.2 C 75 %
311 26-12-2019 03:42:17 10.1 C 75 %
312 26-12-2019 03:52:17 10.1 C 75 %
313 26-12-2019 04:02:17 10.1 C 75 %
314 26-12-2019 04:12:17 10.1 C 75 %
315 26-12-2019 04:22:18 10.1 C 75 %
316 26-12-2019 04:32:17 10.1 C 75 %
317 26-12-2019 04:42:17 10.1 C 75 %
318 26-12-2019 04:52:17 10 C 75 %
319 26-12-2019 05:02:17 10 C 75 %
320 26-12-2019 05:12:17 10.1 C 74 %
321 26-12-2019 05:22:17 10 C 74 %
322 26-12-2019 05:32:18 10 C 74 %
323 26-12-2019 05:42:18 10 C 74 %
324 26-12-2019 05:52:17 10 C 74 %
325 26-12-2019 06:02:17 10 C 74 %
Sensor: Nr:Datum:Temp:Feuchte:
G-T/H 326 26-12-2019 06:12:18 10 C 74 %
327 26-12-2019 06:22:17 10 C 74 %
328 26-12-2019 06:32:18 10 C 74 %
329 26-12-2019 06:42:18 10 C 74 %
330 26-12-2019 06:52:17 10 C 74 %
331 26-12-2019 07:02:18 10 C 74 %
332 26-12-2019 07:12:18 10 C 74 %
333 26-12-2019 07:22:17 10 C 74 %
334 26-12-2019 07:32:17 10 C 74 %
335 26-12-2019 07:42:17 10 C 74 %
336 26-12-2019 07:52:17 10 C 74 %
337 26-12-2019 08:02:18 9.9 C 75 %
338 26-12-2019 08:12:18 9.9 C 75 %
339 26-12-2019 08:22:17 9.9 C 75 %
340 26-12-2019 08:32:17 9.9 C 75 %
341 26-12-2019 08:42:17 9.9 C 75 %
342 26-12-2019 08:52:17 9.9 C 75 %
343 26-12-2019 09:02:17 9.9 C 75 %
344 26-12-2019 09:12:17 9.9 C 75 %
345 26-12-2019 09:22:17 9.9 C 75 %
346 26-12-2019 09:32:17 9.9 C 75 %
347 26-12-2019 09:42:17 9.9 C 75 %
348 26-12-2019 09:52:18 9.9 C 75 %
349 26-12-2019 10:02:17 9.9 C 75 %
350 26-12-2019 10:12:17 9.9 C 75 %
Sensor: Nr:Datum:Temp:Feuchte:
G-T/H 351 26-12-2019 10:22:18 9.9 C 75 %
352 26-12-2019 10:32:17 9.9 C 75 %
353 26-12-2019 10:42:17 9.9 C 75 %
354 26-12-2019 10:52:18 9.9 C 75 %
355 26-12-2019 11:02:17 9.9 C 75 %
356 26-12-2019 11:12:17 9.9 C 75 %
357 26-12-2019 11:22:17 9.9 C 75 %
358 26-12-2019 11:32:17 9.9 C 75 %
359 26-12-2019 11:42:17 9.9 C 75 %
360 26-12-2019 11:52:17 9.9 C 75 %
361 26-12-2019 12:02:17 9.9 C 75 %
362 26-12-2019 12:12:17 9.9 C 75 %
363 26-12-2019 12:22:17 9.9 C 75 %
364 26-12-2019 12:32:18 9.9 C 75 %
365 26-12-2019 12:42:18 9.9 C 76 %
366 26-12-2019 12:52:17 9.9 C 76 %
367 26-12-2019 13:02:18 9.9 C 76 %
368 26-12-2019 13:12:18 9.9 C 76 %
369 26-12-2019 13:22:17 9.9 C 76 %
370 26-12-2019 13:32:18 9.8 C 76 %
371 26-12-2019 13:42:18 9.9 C 76 %
372 26-12-2019 13:52:17 9.8 C 76 %
373 26-12-2019 14:02:18 9.9 C 76 %
374 26-12-2019 14:12:18 9.8 C 76 %
375 26-12-2019 14:22:17 9.8 C 76 %
Sensor: Nr:Datum:Temp:Feuchte:
G-T/H 376 26-12-2019 14:32:17 9.9 C 76 %
377 26-12-2019 14:42:17 9.9 C 76 %
378 26-12-2019 14:52:17 9.9 C 76 %
379 26-12-2019 15:02:17 9.9 C 76 %
380 26-12-2019 15:12:17 9.9 C 76 %
381 26-12-2019 15:22:17 9.9 C 76 %
382 26-12-2019 15:32:17 9.8 C 76 %
383 26-12-2019 15:42:17 9.8 C 76 %
384 26-12-2019 15:52:18 9.8 C 76 %
385 26-12-2019 16:02:17 9.8 C 76 %
386 26-12-2019 16:12:17 9.9 C 76 %
387 26-12-2019 16:22:17 9.8 C 76 %
388 26-12-2019 16:32:17 9.8 C 76 %
389 26-12-2019 16:42:18 9.8 C 76 %
390 26-12-2019 16:53:17 9.8 C 76 %
391 26-12-2019 17:02:17 9.8 C 76 %
392 26-12-2019 17:12:17 9.8 C 76 %
393 26-12-2019 17:22:17 9.8 C 76 %
394 26-12-2019 17:32:17 9.8 C 76 %
395 26-12-2019 17:42:17 9.8 C 76 %
396 26-12-2019 17:52:17 9.8 C 76 %
397 26-12-2019 18:02:17 9.8 C 76 %
398 26-12-2019 18:12:17 9.8 C 76 %
399 26-12-2019 18:22:17 9.8 C 76 %
400 26-12-2019 18:32:17 9.8 C 76 %
Sensor: Nr:Datum:Temp:Feuchte:
G-T/H 401 26-12-2019 18:42:18 9.8 C 76 %
402 26-12-2019 18:53:17 9.8 C 76 %
403 26-12-2019 19:02:17 9.8 C 76 %
404 26-12-2019 19:12:17 9.8 C 76 %
405 26-12-2019 19:23:17 9.8 C 76 %
406 26-12-2019 19:32:17 9.8 C 76 %
407 26-12-2019 19:42:17 9.8 C 76 %
408 26-12-2019 19:53:17 9.8 C 76 %
409 26-12-2019 20:02:17 9.8 C 76 %
410 26-12-2019 20:12:17 9.8 C 76 %
411 26-12-2019 20:23:17 9.8 C 76 %
412 26-12-2019 20:32:17 9.8 C 76 %
413 26-12-2019 20:42:17 9.8 C 76 %
414 26-12-2019 20:53:17 9.8 C 76 %
415 26-12-2019 21:02:17 9.8 C 76 %
416 26-12-2019 21:12:17 9.8 C 76 %
417 26-12-2019 21:23:17 9.8 C 76 %
418 26-12-2019 21:32:18 9.8 C 76 %
419 26-12-2019 21:42:18 9.8 C 75 %
420 26-12-2019 21:52:17 9.8 C 75 %
421 26-12-2019 22:02:18 9.8 C 75 %
422 26-12-2019 22:12:18 9.8 C 75 %
423 26-12-2019 22:22:17 9.8 C 75 %
424 26-12-2019 22:33:17 9.8 C 75 %
425 26-12-2019 22:43:17 9.8 C 75 %
Sensor: Nr:Datum:Temp:Feuchte:
G-T/H 426 26-12-2019 22:52:17 9.8 C 75 %
427 26-12-2019 23:03:17 9.8 C 75 %
428 26-12-2019 23:13:17 9.8 C 75 %
429 26-12-2019 23:23:17 9.8 C 75 %
430 26-12-2019 23:32:17 9.7 C 75 %
431 26-12-2019 23:42:17 9.7 C 75 %
432 26-12-2019 23:53:17 9.7 C 75 %
433 27-12-2019 00:02:17 9.7 C 75 %
434 27-12-2019 00:12:17 9.7 C 75 %
435 27-12-2019 00:23:17 9.7 C 75 %
436 27-12-2019 00:32:17 9.7 C 75 %
437 27-12-2019 00:42:18 9.7 C 75 %
438 27-12-2019 00:53:17 9.7 C 75 %
439 27-12-2019 01:03:18 9.7 C 75 %
440 27-12-2019 01:13:18 9.7 C 75 %
441 27-12-2019 01:23:17 9.7 C 75 %
442 27-12-2019 01:33:17 9.7 C 75 %
443 27-12-2019 01:43:17 9.7 C 75 %
444 27-12-2019 01:53:18 9.7 C 75 %
445 27-12-2019 02:03:17 9.7 C 75 %
446 27-12-2019 02:13:17 9.7 C 75 %
447 27-12-2019 02:23:17 9.7 C 75 %
448 27-12-2019 02:33:18 9.8 C 75 %
449 27-12-2019 02:43:19 9.7 C 75 %
450 27-12-2019 02:53:17 9.7 C 75 %
Sensor: Nr:Datum:Temp:Feuchte:
G-T/H 451 27-12-2019 03:03:17 9.7 C 75 %
452 27-12-2019 03:13:17 9.7 C 75 %
453 27-12-2019 03:23:17 9.7 C 75 %
454 27-12-2019 03:33:17 9.7 C 75 %
455 27-12-2019 03:43:18 9.7 C 75 %
456 27-12-2019 03:53:17 9.7 C 75 %
457 27-12-2019 04:03:17 9.7 C 75 %
458 27-12-2019 04:13:17 9.7 C 75 %
459 27-12-2019 04:23:17 9.7 C 75 %
460 27-12-2019 04:33:17 9.7 C 75 %
461 27-12-2019 04:43:17 9.7 C 75 %
462 27-12-2019 04:53:18 9.7 C 75 %
463 27-12-2019 05:03:17 9.7 C 75 %
464 27-12-2019 05:13:17 9.7 C 75 %
465 27-12-2019 05:23:17 9.7 C 75 %
466 27-12-2019 05:33:17 9.7 C 75 %
467 27-12-2019 05:43:17 9.7 C 75 %
468 27-12-2019 05:53:17 9.7 C 75 %
469 27-12-2019 06:03:17 9.7 C 75 %
470 27-12-2019 06:13:17 9.7 C 75 %
471 27-12-2019 06:23:17 9.7 C 75 %
472 27-12-2019 06:33:17 9.7 C 76 %
473 27-12-2019 06:43:17 9.7 C 76 %
474 27-12-2019 06:53:17 9.7 C 76 %
475 27-12-2019 07:03:17 9.7 C 76 %
Sensor: Nr:Datum:Temp:Feuchte:
G-T/H 476 27-12-2019 07:13:17 9.7 C 76 %
477 27-12-2019 07:23:18 9.7 C 76 %
478 27-12-2019 07:33:17 9.7 C 76 %
479 27-12-2019 07:43:17 9.7 C 76 %
480 27-12-2019 07:53:17 9.7 C 76 %
481 27-12-2019 08:03:17 9.7 C 76 %
482 27-12-2019 08:13:17 9.7 C 76 %
483 27-12-2019 08:23:17 9.7 C 76 %
484 27-12-2019 08:33:17 9.7 C 76 %
485 27-12-2019 08:43:17 9.7 C 76 %
486 27-12-2019 08:53:18 9.7 C 76 %
487 27-12-2019 09:03:17 9.7 C 76 %
488 27-12-2019 09:13:17 9.7 C 76 %
489 27-12-2019 09:23:17 9.7 C 76 %
490 27-12-2019 09:33:17 9.7 C 76 %
491 27-12-2019 09:43:17 9.7 C 76 %
492 27-12-2019 09:53:17 9.7 C 76 %
493 27-12-2019 10:03:17 9.7 C 76 %
494 27-12-2019 10:13:17 9.6 C 76 %
495 27-12-2019 10:23:17 9.7 C 76 %
496 27-12-2019 10:33:18 9.7 C 76 %
497 27-12-2019 10:43:18 9.7 C 76 %
498 27-12-2019 10:53:17 9.7 C 76 %
499 27-12-2019 11:03:18 9.7 C 76 %
500 27-12-2019 11:13:18 9.7 C 76 %
Sensor: Nr:Datum:Temp:Feuchte:
G-T/H 501 27-12-2019 11:23:17 9.7 C 76 %
502 27-12-2019 11:33:17 9.7 C 76 %
503 27-12-2019 11:43:17 9.6 C 76 %
504 27-12-2019 11:53:17 9.7 C 76 %
505 27-12-2019 12:03:17 9.7 C 76 %
506 27-12-2019 12:13:17 9.7 C 76 %
507 27-12-2019 12:23:17 9.7 C 76 %
508 27-12-2019 12:33:17 9.7 C 76 %
509 27-12-2019 12:43:17 9.7 C 76 %
510 27-12-2019 12:53:17 9.7 C 76 %
511 27-12-2019 13:03:17 9.7 C 76 %
512 27-12-2019 13:13:17 9.6 C 76 %
513 27-12-2019 13:23:17 9.7 C 76 %
514 27-12-2019 13:33:17 9.7 C 76 %
515 27-12-2019 13:43:17 9.7 C 76 %
516 27-12-2019 13:53:17 9.7 C 76 %
517 27-12-2019 14:03:18 9.7 C 76 %
518 27-12-2019 14:13:18 9.7 C 76 %
519 27-12-2019 14:23:18 9.7 C 76 %
520 27-12-2019 14:33:17 9.7 C 76 %
521 27-12-2019 14:43:17 9.7 C 76 %
522 27-12-2019 14:53:18 9.7 C 76 %
523 27-12-2019 15:03:17 9.7 C 76 %
524 27-12-2019 15:13:17 9.7 C 76 %
525 27-12-2019 15:23:18 9.7 C 76 %
Sensor: Nr:Datum:Temp:Feuchte:
G-T/H 526 27-12-2019 15:33:17 9.7 C 76 %
527 27-12-2019 15:43:17 9.7 C 76 %
528 27-12-2019 15:53:17 9.7 C 76 %
529 27-12-2019 16:03:17 9.7 C 76 %
530 27-12-2019 16:13:17 9.7 C 76 %
531 27-12-2019 16:23:17 9.7 C 76 %
532 27-12-2019 16:33:17 9.7 C 76 %
533 27-12-2019 16:43:17 9.7 C 76 %
534 27-12-2019 16:53:17 9.7 C 76 %
535 27-12-2019 17:03:17 9.7 C 76 %
536 27-12-2019 17:13:17 9.7 C 76 %
537 27-12-2019 17:23:17 9.7 C 76 %
538 27-12-2019 17:33:18 9.7 C 76 %
539 27-12-2019 17:43:18 9.7 C 76 %
540 27-12-2019 17:53:17 9.7 C 76 %
541 27-12-2019 18:03:18 9.7 C 76 %
542 27-12-2019 18:13:18 9.7 C 76 %
543 27-12-2019 18:23:17 9.7 C 76 %
544 27-12-2019 18:33:18 9.7 C 76 %
545 27-12-2019 18:43:18 9.7 C 76 %
546 27-12-2019 18:53:17 9.7 C 76 %
547 27-12-2019 19:03:17 9.7 C 76 %
548 27-12-2019 19:13:17 9.7 C 76 %
549 27-12-2019 19:23:17 9.7 C 76 %
550 27-12-2019 19:33:17 9.7 C 76 %
Sensor: Nr:Datum:Temp:Feuchte:
G-T/H 551 27-12-2019 19:43:17 9.7 C 76 %
552 27-12-2019 19:53:18 9.7 C 76 %
553 27-12-2019 20:03:17 9.7 C 76 %
554 27-12-2019 20:13:17 9.7 C 76 %
555 27-12-2019 20:23:17 9.7 C 76 %
556 27-12-2019 20:33:18 9.7 C 76 %
557 27-12-2019 20:43:18 9.7 C 75 %
558 27-12-2019 20:53:17 9.7 C 75 %
559 27-12-2019 21:03:18 9.7 C 75 %
560 27-12-2019 21:13:18 9.7 C 75 %
561 27-12-2019 21:23:17 9.7 C 75 %
562 27-12-2019 21:33:18 9.7 C 75 %
563 27-12-2019 21:43:18 9.7 C 75 %
564 27-12-2019 21:53:17 9.7 C 75 %
565 27-12-2019 22:03:17 9.7 C 75 %
566 27-12-2019 22:13:17 9.7 C 75 %
567 27-12-2019 22:23:17 9.7 C 75 %
568 27-12-2019 22:33:17 9.7 C 75 %
569 27-12-2019 22:43:17 9.7 C 75 %
570 27-12-2019 22:53:17 9.7 C 75 %
571 27-12-2019 23:03:18 9.6 C 75 %
572 27-12-2019 23:13:18 9.6 C 75 %
573 27-12-2019 23:23:17 9.6 C 75 %
574 27-12-2019 23:33:17 9.6 C 75 %
575 27-12-2019 23:43:17 9.6 C 75 %
Sensor: Nr:Datum:Temp:Feuchte:
G-T/H 576 27-12-2019 23:53:17 9.6 C 74 %
577 28-12-2019 00:03:17 9.6 C 74 %
578 28-12-2019 00:13:17 9.6 C 74 %
579 28-12-2019 00:23:18 9.6 C 74 %
580 28-12-2019 00:33:17 9.6 C 74 %
581 28-12-2019 00:43:17 9.6 C 74 %
582 28-12-2019 00:53:17 9.5 C 74 %
583 28-12-2019 01:03:17 9.6 C 74 %
584 28-12-2019 01:13:17 9.5 C 74 %
585 28-12-2019 01:23:17 9.5 C 74 %
586 28-12-2019 01:33:17 9.5 C 74 %
587 28-12-2019 01:43:17 9.5 C 74 %
588 28-12-2019 01:53:17 9.5 C 74 %
589 28-12-2019 02:03:17 9.4 C 73 %
590 28-12-2019 02:13:17 9.4 C 73 %
591 28-12-2019 02:23:17 9.5 C 73 %
592 28-12-2019 02:33:18 9.3 C 73 %
593 28-12-2019 02:43:18 9.4 C 73 %
594 28-12-2019 02:53:17 9.3 C 73 %
595 28-12-2019 03:03:17 9.3 C 73 %
596 28-12-2019 03:13:18 9.3 C 73 %
597 28-12-2019 03:23:17 9.3 C 73 %
598 28-12-2019 03:33:17 9.2 C 73 %
599 28-12-2019 03:43:17 9.3 C 73 %
600 28-12-2019 03:53:18 9.3 C 73 %
Sensor: Nr:Datum:Temp:Feuchte:
G-T/H 601 28-12-2019 04:03:17 9.2 C 73 %
602 28-12-2019 04:13:17 9.2 C 72 %
603 28-12-2019 04:23:17 9.2 C 72 %
604 28-12-2019 04:33:17 9.2 C 72 %
605 28-12-2019 04:43:18 9.2 C 72 %
606 28-12-2019 04:53:17 9.1 C 72 %
607 28-12-2019 05:03:18 9.1 C 72 %
608 28-12-2019 05:13:18 9.1 C 72 %
609 28-12-2019 05:23:17 9 C 72 %
610 28-12-2019 05:33:18 9.1 C 72 %
611 28-12-2019 05:43:18 9 C 72 %
612 28-12-2019 05:53:17 9.1 C 72 %
613 28-12-2019 06:03:17 9 C 72 %
614 28-12-2019 06:13:18 9 C 72 %
615 28-12-2019 06:23:17 9 C 72 %
616 28-12-2019 06:33:17 9 C 72 %
617 28-12-2019 06:43:18 9 C 71 %
618 28-12-2019 06:53:17 8.9 C 72 %
619 28-12-2019 07:03:18 8.8 C 72 %
620 28-12-2019 07:13:18 8.9 C 72 %
621 28-12-2019 07:23:17 8.9 C 72 %
622 28-12-2019 07:33:17 8.9 C 72 %
623 28-12-2019 07:43:17 8.8 C 72 %
624 28-12-2019 07:53:17 8.8 C 72 %
625 28-12-2019 08:03:17 8.8 C 72 %
Sensor: Nr:Datum:Temp:Feuchte:
G-T/H 626 28-12-2019 08:13:17 8.8 C 72 %
627 28-12-2019 08:23:18 8.7 C 72 %
628 28-12-2019 08:33:17 8.7 C 72 %
629 28-12-2019 08:43:17 8.7 C 72 %
630 28-12-2019 08:53:17 8.7 C 72 %
631 28-12-2019 09:03:18 8.7 C 72 %
632 28-12-2019 09:13:18 8.7 C 72 %
633 28-12-2019 09:23:17 8.6 C 72 %
634 28-12-2019 09:33:17 8.6 C 72 %
635 28-12-2019 09:43:17 6.6 C 62 %
636 28-12-2019 09:53:17 5.6 C 61 %
637 28-12-2019 10:03:17 5.2 C 61 %
638 28-12-2019 10:13:17 5.1 C 61 %
639 28-12-2019 10:23:17 5.4 C 61 %
640 28-12-2019 10:33:18 7.2 C 62 %
641 28-12-2019 10:43:18 8 C 62 %
642 28-12-2019 10:53:17 8.2 C 63 %
643 28-12-2019 11:03:18 8.2 C 64 %
644 28-12-2019 11:13:18 8.2 C 64 %
645 28-12-2019 11:23:17 8.2 C 65 %
646 28-12-2019 11:33:17 8.2 C 65 %
647 28-12-2019 11:43:18 8.2 C 66 %
648 28-12-2019 11:53:17 8.3 C 67 %
649 28-12-2019 12:03:17 8.4 C 67 %
650 28-12-2019 12:13:17 8.4 C 67 %
Sensor: Nr:Datum:Temp:Feuchte:
G-T/H 651 28-12-2019 12:23:17 8.3 C 68 %
652 28-12-2019 12:33:17 8.3 C 68 %
653 28-12-2019 12:43:18 8.2 C 68 %
654 28-12-2019 12:53:17 8.2 C 68 %
655 28-12-2019 13:03:18 8.2 C 69 %
656 28-12-2019 13:13:18 8.2 C 69 %
657 28-12-2019 13:23:17 8.2 C 69 %
658 28-12-2019 13:33:17 8.2 C 69 %
659 28-12-2019 13:43:17 8.2 C 69 %
660 28-12-2019 13:53:17 8.2 C 69 %
661 28-12-2019 14:03:17 8.2 C 69 %
662 28-12-2019 14:13:17 8.1 C 70 %
663 28-12-2019 14:23:17 8.2 C 70 %
664 28-12-2019 14:33:17 8.2 C 70 %
665 28-12-2019 14:43:17 8.2 C 70 %
666 28-12-2019 14:53:17 8.1 C 70 %
667 28-12-2019 15:03:17 8.1 C 70 %
668 28-12-2019 15:13:18 8.1 C 70 %
669 28-12-2019 15:23:17 8.1 C 70 %
670 28-12-2019 15:33:17 8.1 C 70 %
671 28-12-2019 15:43:17 8 C 70 %
672 28-12-2019 15:53:18 8.1 C 70 %
673 28-12-2019 16:03:17 7.8 C 69 %
674 28-12-2019 16:13:17 7.9 C 69 %
675 28-12-2019 16:23:17 8 C 68 %
Sensor: Nr:Datum:Temp:Feuchte:
G-T/H 676 28-12-2019 16:33:17 8 C 69 %
677 28-12-2019 16:43:17 8 C 69 %
678 28-12-2019 16:53:17 8 C 69 %
679 28-12-2019 17:03:17 8 C 69 %
680 28-12-2019 17:13:17 8 C 69 %
681 28-12-2019 17:23:17 8 C 69 %
682 28-12-2019 17:33:18 8 C 69 %
683 28-12-2019 17:43:18 8 C 69 %
684 28-12-2019 17:53:17 8 C 69 %
685 28-12-2019 18:03:17 7.9 C 70 %
686 28-12-2019 18:13:17 8 C 69 %
687 28-12-2019 18:23:17 8 C 69 %
688 28-12-2019 18:33:17 7.9 C 70 %
689 28-12-2019 18:43:17 8 C 70 %
690 28-12-2019 18:53:17 8 C 70 %
691 28-12-2019 19:03:17 8 C 70 %
692 28-12-2019 19:13:18 7.9 C 71 %
693 28-12-2019 19:23:17 7.9 C 71 %
694 28-12-2019 19:33:18 7.9 C 71 %
695 28-12-2019 19:43:18 7.9 C 71 %
696 28-12-2019 19:53:17 7.9 C 71 %
697 28-12-2019 20:03:17 7.9 C 71 %
698 28-12-2019 20:13:17 7.9 C 71 %
699 28-12-2019 20:23:17 7.9 C 71 %
700 28-12-2019 20:33:18 7.9 C 71 %
Sensor: Nr:Datum:Temp:Feuchte:
G-T/H 701 28-12-2019 20:43:18 7.9 C 71 %
702 28-12-2019 20:53:18 7.9 C 71 %
703 28-12-2019 21:03:17 7.9 C 71 %
704 28-12-2019 21:13:17 7.9 C 71 %
705 28-12-2019 21:23:17 7.9 C 71 %
706 28-12-2019 21:33:17 7.9 C 71 %
707 28-12-2019 21:43:18 7.8 C 71 %
708 28-12-2019 21:53:17 7.8 C 71 %
709 28-12-2019 22:03:18 7.8 C 71 %
710 28-12-2019 22:13:18 7.8 C 71 %
711 28-12-2019 22:23:17 7.8 C 71 %
712 28-12-2019 22:33:17 7.8 C 71 %
713 28-12-2019 22:43:17 7.8 C 71 %
714 28-12-2019 22:53:17 7.8 C 71 %
715 28-12-2019 23:03:17 7.8 C 71 %
716 28-12-2019 23:13:17 7.8 C 71 %
717 28-12-2019 23:23:17 7.8 C 71 %
718 28-12-2019 23:33:17 7.8 C 70 %
719 28-12-2019 23:43:17 7.7 C 70 %
720 28-12-2019 23:53:17 7.7 C 70 %

Legende:
   Min
   Max


Maximal/Minimal-Werte vom 24.12.2019 - 28.12.2019

Sensor Min Max Avg
Temp
(Aussen-T/F)
-3.2 °C
28-12-2019  08:33:17
10.5 °C
24-12-2019  15:52:17
4.31 °C
Feuchte
(Aussen-T/F)
20 %
24-12-2019  15:42:17
45 %
28-12-2019  02:03:17
36.55 %
Temp
(G-T/H)
5.1 °C
28-12-2019  10:13:17
10.3 °C
24-12-2019  00:02:17
9.67 °C
Feuchte
(G-T/H)
61 %
28-12-2019  09:53:17
76 %
24-12-2019  19:52:17
74.41 %

Die Daten stammen von einer Davis Vantage Pro 2 Wetter-Station und werden unter Linux mit der Software wview2wettercgi und aufbereitet. Alle Angaben erfolgen ohne Gewähr für ihre Vollständigkeit oder Richtigkeit.
Kontakt: Rainer Krienke krienke@uni-koblenz.de . Meine Webseiten an der Uni Koblenz oder privat.
Version: $Revision: 0.78 $